Текущая погода в США : Lewistown Municipal Airport, Lewistown 47.0492°ш. -109.4664°д. 1270 м над ур. моря [MT]

ICAO Дата, время (UTC) Дата, время (местные) Ветер
(°,м/с) 
Видим.   Явления Облачность Т
(°С)
Тd
(°С)
f(%) Тe
(°С)
Тes
(°С)
Po
(гПа)
P
(гПа)
Тmin 6 ч. Tmax 6 ч. Тmin 24 ч. Tmax 24 ч. R1 R6 R24 SD
KLWT 26.09 00:54 25.09 18:54 тихо  16 км    ясно  +5.0  0.0  70  +4  +4  1024.1  877.6  +1.7  +12.8      0.3  0.8  8.1   
KLWT 26.09 01:54 25.09 19:54 130  16 км    ясно  +5.0  +0.6  73  +1  +1  1023.7  877.6  +1.7  +12.8      0.3  0.8  8.1   
KLWT 26.09 02:54 25.09 20:54 120  16 км    ясно  +4.0  +1.0  81  +1  +1  1023.3  877.6  +1.7  +12.8      0.3  0.8  8.1   
KLWT 26.09 03:54 25.09 21:54 120  16 км    ясно  +2.0  0.0  87  -2  -2  1023.0  877.0  +1.7  +12.8      0.3  0.8  8.1   
KLWT 26.09 04:54 25.09 22:54 100  16 км    ясно  +2.2  0.0  85  -2  -2  1022.5  876.8  +1.7  +12.8      0.3  0.8  8.1   
KLWT 26.09 05:54 25.09 23:54 120  16 км    ясно  +2.2  0.0  85  -2  -2  1022.2  876.8  +1.1  +6.7      0.3  0.8  8.1   
KLWT 26.09 06:54 26.09 00:54 050  16 км    ясно  +2.0  -1.0  80  -1  -1  1021.8  876.5  +1.1  +6.7      0.3  0.8  8.1   
KLWT 26.09 07:54 26.09 01:54 220  16 км    ясно  +3.3  0.0  79  -2  -2  1021.3  876.2  +1.1  +6.7      0.3  0.8  8.1   
KLWT 26.09 08:54 26.09 02:54 220  16 км    ясно  +4.0  0.0  75  -1  -1  1020.5  875.9  +1.1  +6.7      0.3  0.8  8.1   
KLWT 26.09 09:54 26.09 03:54 нст  16 км    ясно  +5.0  -1.0  65  +3  +3  1020.4  875.9  +1.1  +6.7      0.3  0.8  8.1   
KLWT 26.09 10:54 26.09 04:54 320  16 км    ясно  +5.0  -0.6  67  +2  +2  1020.4  875.9  +1.1  +6.7      0.3  0.8  8.1   
KLWT 26.09 11:54 26.09 05:54 тихо  16 км    ясно  +5.0  -1.0  65  +4  +4  1020.4  875.6  +3.3  +15.0      0.3  0.8  8.1   
KLWT 26.09 12:54 26.09 06:54 280  16 км    ясно  +7.0  +1.0  66  +6  +6  1021.3  875.9  +3.3  +15.0      0.3  0.8  8.1   
KLWT 26.09 13:54 26.09 07:54 290  16 км    ясно  +8.3  +1.7  63  +6  +6  1021.3  875.9  +3.3  +15.0      0.3  0.8  8.1   
KLWT 26.09 14:54 26.09 08:54 280  16 км    ясно  +11.0  +2.0  54  +8  +8  1020.9  875.9  +3.3  +15.0      0.3  0.8  8.1   
KLWT 26.09 15:54 26.09 09:54 300  16 км    ясно  +13.0  +2.0  47  +11  +12  1021.2  876.2  +3.3  +15.0      0.3  0.8  8.1   
KLWT 26.09 16:54 26.09 10:54 300  6
{11} 
16 км  слабый дождь  ясно  +15.0  +0.6  37  +13  +14  1020.5  875.9  +3.3  +15.0      0.3  0.8  8.1   
KLWT 26.09 17:54 26.09 11:54 290  6
{10} 
16 км  слабый снег, дымка  ясно  +15.0  +1.0  39  +13  +15  1019.7  875.3  +14.4  +17.2      0.3  0.8  8.1   
KLWT 26.09 18:54 26.09 12:54 290  6
{10} 
16 км  слабый снег, дымка  ясно  +16.0  +1.0  36  +15  +16  1018.9  874.7  +14.4  +17.2      0.3  0.8  8.1   
KLWT 26.09 19:54 26.09 13:54 300  16 км  слабый снег, дымка  ясно  +16.7  +0.6  34  +16  +17  1017.5  873.8  +14.4  +17.2      0.3  0.8  8.1   
KLWT 26.09 20:54 26.09 14:54 290  6
{9} 
16 км  слабый снег, дымка  ясно  +17.0  +1.0  34  +16  +17  1016.8  873.3  +14.4  +17.2      0.3  0.8  8.1   
KLWT 26.09 21:54 26.09 15:54 310  16 км    ясно  +17.0  +1.0  34  +17  +19  1016.5  873.3  +14.4  +17.2      0.3  0.8  8.1   
KLWT 26.09 22:54 26.09 16:54 010  16 км    10/10 м
[средняя] 
+16.1  +2.8  41  +16  +16  1016.3  873.0  +14.4  +17.2      0.3  0.8  8.1   
KLWT 26.09 23:54 26.09 17:54 тихо  16 км    10/10 м
[средняя] 
+13.0  +3.0  51  +13  +13  1016.3  872.7  +10.0  +16.1      0.3  0.8  8.1   
KLWT 27.09 00:54 26.09 18:54 тихо  16 км    10/10 м
[средняя] 
+12.0  +4.0  58  +12  +12  1016.8  873.0  +10.0  +16.1      0.3  0.8  8.1   
KLWT 27.09 01:54 26.09 19:54 140  16 км    10/10 м
[средняя] 
+11.7  +4.4  61  +10  +10  1017.2  873.6  +10.0  +16.1      0.3  0.8  8.1   
KLWT 27.09 02:54 26.09 20:54 210  16 км    10/10 м
[средняя] 
+11.0  +4.0  62  +9  +9  1016.9  873.6  +10.0  +16.1      0.3  0.8  8.1   
KLWT 27.09 03:54 26.09 21:54 360  16 км    10/10 м
[средняя] 
+11.0  +4.0  62  +9  +9  1016.6  873.6  +10.0  +16.1      0.3  0.8  8.1   
KLWT 27.09 04:54 26.09 22:54 тихо  16 км  дымка  10/10 м
[средняя] 
+10.0  +4.4  68  +10  +10  1016.7  873.8  +10.0  +16.1      0.3  0.8  8.1   
KLWT 27.09 05:54 26.09 23:54 тихо  16 км  туман  10/10 м
[средняя] 
+10.0  +4.4  68  +10  +10  1017.3  874.1  +7.8  +11.1      0.3  0.8  8.1   
KLWT 27.09 06:54 27.09 00:54 тихо  16 км    10/10 м
[средняя] 
+9.0  +5.0  76  +8  +8  1016.9  873.8  +7.8  +11.1      0.3  0.8  8.1   
KLWT 27.09 07:54 27.09 01:54 010  16 км  дымка  10/10 м
[средняя] 
+9.4  +5.0  74  +7  +7  1016.4  873.6  +7.8  +11.1      0.3  0.8  8.1   
KLWT 27.09 08:54 27.09 02:54 тихо  16 км    10/10 м
[средняя] 
+8.0  +4.0  76  +7  +7  1016.4  873.6  +7.8  +11.1      0.3  0.8  8.1   
KLWT 27.09 09:54 27.09 03:54 350  16 км    10/10 м
[средняя] 
+8.0  +4.0  76  +5  +5  1016.8  873.8  +7.8  +11.1      0.3  0.8  8.1   
KLWT 27.09 10:54 27.09 04:54 120  16 км    10/10 м
[средняя] 
+7.8  +4.4  79  +5  +5  1017.4  874.1  +7.8  +11.1      0.3  0.8  8.1   
KLWT 27.09 11:54 27.09 05:54 тихо  16 км    10/10 м
[средняя] 
+7.0  +5.0  87  +6  +6  1018.2  874.4  +5.0  +7.8      0.3  0.8  8.1   
KLWT 27.09 13:32 27.09 07:32 тихо  16 км    10/10 м
[средняя] 
+7.0  +6.0  93  +6  +6  1019.3  874.7  +5.0  +7.8      0.3  0.8  8.1   
KLWT 27.09 14:41 27.09 08:41 360  8 км    10/10 м
[средняя] 
+6.0  +6.0  100  +2  +2  1019.6  875.0  +5.0  +7.8      0.3  0.8  8.1   
KLWT 27.09 15:40 27.09 09:40 030  16 км    10/10 м
[средняя] 
+6.0  +5.0  93  +2  +2  1020.2  875.3  +5.0  +7.8        0.8  8.1   
KLWT 27.09 16:16 27.09 10:16 090  16 км    10/10 м
[средняя] 
+6.0  +4.0  87  +2  +2  1020.6  875.6  +5.0  +7.8      0.3  0.8  8.1   
KLWT 27.09 17:18 27.09 11:18 090  4 км    10/10 м
[средняя] 
+4.0  +4.0  100  -1  -1  1021.0  875.6  +2.8  +5.0        1.8  8.1   
KLWT 27.09 18:54 27.09 12:54 110  14 км    10/10 м
[средняя] 
+4.0  +3.0  93  -1  -1  1021.5  876.2  +2.8  +5.0      0.8  1.8  8.1   
KLWT 27.09 19:18 27.09 13:18 100  11 км    10/10 м
[средняя] 
+3.0  +3.0  100  -3  -3  1022.3  876.5  +2.8  +5.0      0.3  1.8  8.1   
KLWT 27.09 20:23 27.09 14:23 110  8 км    10/10 м
[средняя] 
+3.0  +2.0  93  -3  -3  1023.5  877.0  +2.8  +5.0      0.8  3.8  8.1   
KLWT 27.09 21:49 27.09 15:49 120  14 км    10/10 м
[средняя] 
+3.0  +2.0  93  -1  -1  1024.3  877.9  +2.8  +5.0      0.8  3.8  8.1   
KLWT 27.09 22:29 27.09 16:29 тихо  16 км    10/10 м
[средняя] 
+3.0  +2.0  93  +2  +2  1024.8  878.5  +2.8  +5.0      0.3  3.8  8.1   
KLWT 27.09 23:41 27.09 17:41 тихо  16 км    10/10 м
[средняя] 
+3.0  +2.0  93  +2  +2  1025.0  878.5  +2.2  +3.3      0.3  0.5  8.1   
KLWT 28.09 00:18 27.09 18:18 360  16 км    10/10 м
[средняя] 
+3.0  +2.0  93  0  0  1025.5  878.8  +2.2  +3.3        0.5  8.1   
KLWT 28.09 01:54 27.09 19:54 310  16 км    10/10 м
[средняя] 
+2.8  +2.8  100  -1  -1  1026.1  879.4  +2.2  +3.3        0.5  8.1   
KLWT 28.09 02:54 27.09 20:54 тихо  14 км    10/10 м
[средняя] 
+3.0  +2.0  93  +2  +2  1025.7  879.1  +2.2  +3.3      0.3  1.5  8.1   
KLWT 28.09 03:54 27.09 21:54 нст  16 км    10/10 м
[средняя] 
+3.0  +2.0  93  0  0  1026.8  879.9  +2.2  +3.3      0.3  1.5  8.1   
KLWT 28.09 04:20 27.09 22:20 330  16 км    10/10 м
[средняя] 
+2.0  +2.0  100  -1  -1  1027.4  880.2  +2.2  +3.3      0.3  1.5  8.1   
KLWT 28.09 05:54 27.09 23:54 130  13 км    10/10 м
[средняя] 
+1.7  +1.1  96  -3  -3  1028.0  880.5  +0.6  +2.8      1.5  2.0  8.1   
KLWT 28.09 06:12 28.09 00:12 170  10 км    10/10 м
[средняя] 
+1.0  +1.0  100  -4  -4  1028.2  880.5  +0.6  +2.8      0.5  2.0  8.1   
KLWT 28.09 07:54 28.09 01:54 тихо  16 км    10/10 м
[средняя] 
+1.1  +1.1  100  -0  -0  1028.5  880.8  +0.6  +2.8        2.0  8.1   
KLWT 28.09 08:54 28.09 02:54 070  16 км    10/10 м  +2.0  +1.0  93  -1  -1  1028.2  880.5  +0.6  +2.8      0.3  2.0  8.1   
KLWT 28.09 09:54 28.09 03:54 тихо  16 км    10/10 м  +1.0  +1.0  100  -0  -0  1028.1  880.2  +0.6  +2.8      0.3  2.0  8.1   
KLWT 28.09 10:54 28.09 04:54 тихо  16 км    10/10 м  +0.6  0.0  96  -1  -1  1028.3  880.2  +0.6  +2.8      0.3  2.0  8.1   
KLWT 28.09 11:33 28.09 05:33 200  3 км    10/10 м  -1.0  -1.0  100  -4  -4  1028.0  879.9  -0.6  +6.7      0.3  0.5  2.5   
KLWT 28.09 12:54 28.09 06:54 200  16 км    10/10 м  0.0  0.0  100  -3  -3  1027.8  879.9  -0.6  +6.7      0.3  0.5  2.5   
KLWT 28.09 13:54 28.09 07:54 080  16 км    5/5 м  +2.2  +0.6  89  -1  -0  1027.0  879.7  -0.6  +6.7      0.3  0.5  2.5   
KLWT 28.09 14:54 28.09 08:54 110  16 км    ясно  +4.0  +2.0  87  -1  -0  1026.3  879.1  -0.6  +6.7      0.3  0.5  2.5   
KLWT 28.09 15:54 28.09 09:54 120  16 км    10/10 м
[средняя] 
+6.0  +2.0  75  +2  +2  1025.2  878.5  -0.6  +6.7      0.3  0.5  2.5   
KLWT 28.09 16:54 28.09 10:54 070  16 км    10/10 м
[средняя] 
+6.1  +1.7  73  +1  +1  1024.2  877.6  -0.6  +6.7      0.3  0.5  2.5   
KLWT 28.09 17:27 28.09 11:27 110  16 км  слабый дождь  10/10 м
[средняя] 
+7.0  +1.0  66  +4  +4  1023.0  877.3  +5.0  +7.8      0.3  0.5  2.5   
KLWT 28.09 18:14 28.09 12:14 070  16 км    10/10 м
[средняя] 
+7.0  +1.0  66  +3  +3  1022.1  876.5  +5.0  +7.8      0.3  0.5  2.5   
KLWT 28.09 19:54 28.09 13:54 080  16 км    10/10 м
[средняя] 
+6.7  +1.1  67  +2  +2  1021.0  875.0  +5.0  +7.8      0.3  0.5  2.5   
KLWT 28.09 20:54 28.09 14:54 100  16 км    10/10 м
[средняя] 
+7.0  +1.0  66  +2  +2  1019.7  873.8  +5.0  +7.8      0.3  0.5  2.5   
KLWT 28.09 21:54 28.09 15:54 100  16 км    10/10 м
[средняя] 
+6.0  +1.0  70  +1  +1  1019.7  873.8  +5.0  +7.8      0.3  0.5  2.5   
KLWT 28.09 22:54 28.09 16:54 080  16 км    10/10 м
[средняя] 
+5.0  +1.1  76  -0  -0  1019.7  873.6  +5.0  +7.8      0.3  0.5  2.5   
KLWT 28.09 23:15 28.09 17:15 090  16 км    10/10 м
[средняя] 
+5.0  +1.0  75  -0  -0  1019.3  873.3  +3.9  +5.0      0.3  0.5  2.5   
KLWT 29.09 00:54 28.09 18:54 080  16 км    10/10 м
[средняя] 
+4.0  +1.0  81  -1  -1  1019.3  873.0  +3.9  +5.0      0.3  0.5  2.5   
ICAO Дата, время (UTC) Дата, время (местные) Ветер
(°,м/с) 
Видим.   Явления Облачность Т
(°С)
Тd
(°С)
f(%) Тe
(°С)
Тes
(°С)
Po
(гПа)
P
(гПа)
Тmin 6 ч. Tmax 6 ч. Тmin 24 ч. Tmax 24 ч. R1 R6 R24 SD

 

ПОГОДА В США по штатам




Выборка из архива погоды по пункту Lewistown Municipal Airport, Lewistown.

Выберите нужную дату и нажмите кнопку "Найти!".
Будут отображены 100 сводок погоды по данному пункту, заканчивая указанной датой.

Данные о погоде в США получены из раскодированных сводок METAR и преобразованы в метрические единицы. Обновление таблицы - в течение 1-2 часов после момента отправки сводки метеостанцией. Срок хранения данных - 60 суток. Информация, представленная в этом разделе, является неофициальной и предназначена исключительно для личного использования в познавательных и исследовательских целях.





Текущая погода в США